Regional Weather Roundup
Issued by NWS

Home | Current Version | Previous Version | Text Only | Print | Product List | Glossary On
Versions: 1 2 3 4 5 6 7 8 9 10 11 12 13 14 15 16 17 18 19 20 21 22 23 24 25 26 27 28 29 30 31 32 33 34 35 36 37 38 39 40 41 42 43 44 45 46 47 48 49 50
000
ASUS43 KMKX 291021
RWRWI

WISCONSIN REGIONAL WEATHER ROUNDUP
NATIONAL WEATHER SERVICE MILWAUKEE/SULLIVAN WI
500 AM CDT FRI JUL 29 2016

NOTE: "FAIR" INDICATES FEW OR NO CLOUDS BELOW 12,000 FEET WITH NO
SIGNIFICANT WEATHER AND/OR OBSTRUCTIONS TO VISIBILITY.

WIZ001-002-006>008-014>016-023>028-291100-
NORTHWEST WISCONSIN

CITY           SKY/WX    TMP DP  RH WIND       PRES   REMARKS
SUPERIOR ARPT  FOG       49  49 100 CALM      30.11S VSB 1/4
ASHLAND        FOG       45  45 100 SW3       30.11R VSB 1/2
HAYWARD        CLEAR     49  47  93 NE3       30.10S
SIREN          CLEAR     54  52  94 NE5       30.09S
CUMBERLAND     CLEAR     54  52  94 N5        30.08S
RICE LAKE      CLEAR     54  52  93 CALM      30.09R
CHETEK         CLEAR     59  55  88 N3        30.07S
LADYSMITH      CLEAR     54  52  95 N3        30.09S
EAU CLAIRE     CLOUDY    62  57  83 N5        30.03S
MENOMONIE      CLOUDY    63  57  80 N3        30.05S
NEW RICHMOND   CLEAR     58  56  94 N3        30.06S
OSCEOLA        PTCLDY    56  56 100 CALM      30.10R
$$

WIZ003>005-009-010-017-018-291100-
NORTH CENTRAL WISCONSIN

CITY           SKY/WX    TMP DP  RH WIND       PRES   REMARKS
MANITOWISH WTR CLEAR     46  46 100 CALM      30.10R FOG
ARBOR VITAE    CLEAR     49  48  95 CALM      30.10R
WOODRUFF       CLEAR     49  48  95 CALM      30.10R
RHINELANDER    CLEAR     50  48  93 N3        30.09R
EAGLE RIVER    FOG       46  46 100 CALM      30.10R VSB 1/2
LAND O LAKES   CLEAR     43  43  99 CALM      30.11R FOG
PHILLIPS       CLEAR     47  47 100 N3        30.09S
TOMAHAWK         N/A     46  44  96 CALM      30.09S FOG
MEDFORD        CLEAR     55  55 100 NE6       30.05F
MERRILL        PTCLDY    53  52  99 CALM      30.07S
$$

WIZ029-030-035-036-043>047-291100-
CENTRAL WISCONSIN

CITY           SKY/WX    TMP DP  RH WIND       PRES   REMARKS
WAUSAU         MOCLDY    59  52  77 N5        30.03F
MOSINEE        CLOUDY    59  54  82 NE7       30.05F
MARSHFIELD     PTCLDY    61  56  83 NE8       30.03F
STEVENS POINT  CLOUDY    56  55  96 NE5       30.03F
WAUPACA        MOCLDY    61  58  92 CALM      30.02F
WAUTOMA        LGT RAIN  58  57  97 N3        30.02S
WISC RAPIDS    CLOUDY    61  52  72 NE8       30.03F
CAMP DOUGLAS   PTCLDY    63  55  76 NE2       30.00S
$$

WIZ011>013-019>022-031-037>040-048>050-291100-
NORTHEAST WISCONSIN

CITY           SKY/WX    TMP DP  RH WIND       PRES   REMARKS
ANTIGO         CLOUDY    55  52  89 CALM      30.07S
SHAWANO        CLEAR     60  55  83 N5        30.04S
OCONTO         CLOUDY    58  58 100 N6        30.03R
STURGEON BAY   CLOUDY    64  61  90 NE5       30.03R
GREEN BAY      CLOUDY    60  58  92 N9        30.01S
MANITOWOC      CLOUDY    63  61  93 N6        30.00R
APPLETON       CLOUDY    59  54  82 N9        30.00S
CLINTONVILLE   CLOUDY    59  52  77 NE6       30.03S
OSHKOSH        CLOUDY    64  61  90 NE12      30.00R
$$

WIZ032>034-041-042-053>061-291100-
SOUTHWEST WISCONSIN

CITY           SKY/WX    TMP DP  RH WIND       PRES   REMARKS
LA CROSSE      CLOUDY    66  60  81 N6        29.99S
SPARTA         CLOUDY    63  56  79 NE7       30.02S
VIROQUA        CLOUDY    63  63  99 NE6       30.00S
BOSCOBEL       CLOUDY    67  62  84 NE6       29.96F
PRAIRIE DU CHI CLOUDY    66  61  84 N3        29.96R
PLATTEVILLE    CLOUDY    66  64  94 NE7       29.95S
$$

WIZ056-057-062-063-064-067-068-291100-
SOUTH CENTRAL WISCONSIN

CITY           SKY/WX    TMP DP  RH WIND       PRES   REMARKS
REEDSBURG      CLOUDY    63  63 100 NE5       29.98S
BARABOO/DELLS  DRIZZLE   61  59  92 NE5       29.99R
LONE ROCK      CLOUDY    66  61  84 NE7       29.97S
MINERAL POINT  CLOUDY    64  63  94 NE6       29.96S
MADISON        LGT RAIN  65  62  90 NE9       29.96S
MIDDLETON      CLOUDY    66  64  92 NE7       29.98R
WATERTOWN      CLOUDY    65  65 100 NE5       29.96R
MONROE         CLOUDY    64  61  88 NE9       29.95S
JANESVILLE     CLOUDY    68  63  83 NE3       29.94S
$$

WIZ051-052-058>065-066-070>072-291100-
SOUTHEAST WISCONSIN

CITY           SKY/WX    TMP DP  RH WIND       PRES   REMARKS
MILWAUKEE      CLOUDY    68  65  90 N9        29.94R
WAUKESHA       CLOUDY    64  63  94 NE5       29.97R
MILWAUKEE/TIMM CLOUDY    66  63  88 NE8       29.96R
RACINE         CLOUDY    68  65  90 N7        29.95S
BURLINGTON     CLOUDY    67  65  93 N3        29.94S
KENOSHA        CLOUDY    68  66  93 N7        29.94R
FOND DU LAC    LGT RAIN  64  61  90 NE12      30.00R
SHEBOYGAN      CLOUDY    64  62  93 NE9       29.98S
WEST BEND      CLOUDY    63  61  94 NE8       29.98R
JUNEAU         CLOUDY    63  61  93 N12       29.99R
$$

LSZ147-162-291100-
LAKE SUPERIOR

STATION/POSITION TIME  TEMP    WIND        PRES    WAVE
                       AIR SEA DIR/SP/G            HT/PER
                 (UTC) (F)     (DEG/KT/KT) (MB)    (FT/S)
W MID LAKE BUOY  0950   61 60  340/  6/  6 1018.8F   0
DEVILS ISLAND    1000   62      20/  7/  8 1019.5R
SAXON HARBOR     0900   50     190/  4/  5 1019.0
$$

LMZ867-665-643>646-291100-
LAKE MICHIGAN

STATION/POSITION TIME  TEMP    WIND        PRES    WAVE
                       AIR SEA DIR/SP/G            HT/PER
                 (UTC) (F)     (DEG/KT/KT) (MB)    (FT/S)
CHAMBERS ISLAND  0900   66      30/ 11/ 14 1016.9S
N MID LAKE BUOY  0950   68 69  100/ 12/ 14 1015.9R   2/ 4
NORTHPORT PIER   0900   65      40/  5/  6 1016.9
SISTER BAY       0921   64        CALM       N/A
ALGOMA LAKESHORE 0943          110/ 11/ 12   N/A
KEWAUNEE LAKESHO 0900   63      10/  7/ 11 1015.4F
SHEBOYGAN LAKESH 1000   61     350/ 12/ 13 1015.4S
PORT WASHINGTON  0940   66      10/  8/ 13 1015.2F
ATWATER BUOY     1000   63 62   10/ 12/ 16 1015.6R
MILWAUKEE LAKESH 0910   66      20/ 14/ 17   N/A
S MID LAKE BUOY  0950   73 75   70/ 14/ 16 1012.7R   2/ 6
KENOSHA   LAKESH 1000   68     350/  8/ 10 1013.5R
$$

TC  - TEMPERATURE IN CELSIUS
VSB - VISIBILITY IN STATUTE MILES
WCI - WIND CHILL INDEX
HX  - HEAT INDEX





USA.gov is the U.S. government's official web portal to all federal, state and local government web resources and services.